Location: ???????
(55.4231°N, 38.5570°E)
Time: 15:11:05
(UTC+00:00)

Okean 3 - Pass Details

Date: 05 August 2024
Orbit: 557 x 579 km, 82.5° (Epoch: 19 September)

Event Time Altitude Azimuth Distance (km) Brightness Sun altitude
Rises 00:07:18 0° 343° (NNW) 2,771 7.4 -10.6°
Reaches altitude 10° 00:09:34 10° 337° (NNW) 1,866 6.4 -10.4°
Maximum altitude 00:13:27 42° 266° (W) 804 3.8 -10.0°
Enters shadow 00:17:06 11° 196° (SSW) 1,775 5.3 -9.7°
